Overview Statistics Trail Chart Weather Telemetry Raw packets
 

This is the latest recevied weather packets stored in our database for station/object DH2PG-6. If no packets are shown the sender has not sent any weather packets the latest 10 day(s).

<< 81 82 83 84 85 86 87 >>
Time Temp. Humidity Pressure Rain* Wind** Luminosity Snow
1787939185 18.33° C 62% 1009.6 hPa 0 mm - - -
1787938885 18.89° C 60% 1009.6 hPa 0 mm - - -
1787938584 19.44° C 57% 1009.7 hPa 0 mm - - -
1787938284 19.44° C 59% 1009.6 hPa 0 mm - - -
1787937383 18.33° C 59% 1009.4 hPa 0 mm - - -
1787937083 18.89° C 59% 1009.3 hPa 0 mm - - -
1787936782 18.89° C 59% 1009.1 hPa 0 mm - - -
1787936182 19.44° C 60% 1009 hPa 0 mm - - -
1787935882 20° C 61% 1009 hPa 0 mm - - -
1787935581 20° C 61% 1009 hPa 0 mm - - -
1787935281 20° C 63% 1008.8 hPa 0 mm - - -
1787934981 20° C 64% 1008.8 hPa 0 mm - - -
1787934680 20° C 63% 1008.9 hPa 0 mm - - -
1787934380 20° C 62% 1008.8 hPa 0 mm - - -
1787934080 20° C 61% 1008.6 hPa 0 mm - - -
1787933780 20° C 61% 1008.5 hPa 0 mm - - -
1787933179 20° C 61% 1008.3 hPa 0 mm - - -
1787932879 20.56° C 61% 1008.3 hPa 0 mm - - -
1787932578 20.56° C 61% 1008.3 hPa 0 mm - - -
1787931985 20.56° C 60% 1008.3 hPa 0 mm - - -
1787931678 20.56° C 60% 1008.3 hPa 0 mm - - -
1787931377 21.11° C 59% 1008.4 hPa 0 mm - - -
1787931077 21.11° C 59% 1008.3 hPa 0 mm - - -
1787930777 21.67° C 59% 1008.5 hPa 0 mm - - -
1787930477 22.22° C 60% 1008.3 hPa 0 mm - - -

* Rain latest hour (hover to see other rain measurements)
** Current wind speed in m/s (hover to see current wind gust speed)